Location: Unspecified
(0.0000°N, 0.0000°E)
Time: 16:51:11
(UTC+00:00)

SLDCOM 1 - Visible Passes

Search period start: 14 April 2024 00:00
Search period end: 24 April 2024 00:00
Orbit: 1215 x 11541 km, 63.5° (Epoch: 03 October)

Date Brightness Start Highest point End Pass type
(mag) Time Alt. Az. Time Alt. Az. Time Alt. Az.
14 Apr 8.8 21:53:19 10° SSW 22:15:36 69° N 23:08:53 10° NNE visible
15 Apr 8.7 21:47:08 10° SSW 22:07:12 75° N 23:02:40 10° NNE visible
16 Apr 8.5 21:40:55 10° SSW 21:57:58 84° NNW 22:56:28 10° NNE visible
17 Apr 8.6 21:34:44 10° SSW 21:50:47 85° WNW 22:50:16 10° NNE visible
18 Apr 8.6 21:28:32 10° SSW 21:44:35 85° WNW 22:44:04 10° NNE visible
19 Apr 8.6 21:22:20 10° SSW 21:38:23 85° WNW 22:37:52 10° NNE visible
20 Apr 8.7 21:16:08 10° SSW 21:32:11 85° WNW 22:31:40 10° NNE visible
21 Apr 8.7 21:09:56 10° SSW 21:25:59 85° WNW 22:25:28 10° NNE visible
22 Apr 8.7 21:03:44 10° SSW 21:19:47 85° WNW 22:19:16 10° NNE visible
23 Apr 8.7 20:57:32 10° SSW 21:13:36 85° WNW 22:13:04 10° NNE visible
